Погода Иваново

Погода Иваново : погода сейчас, прогноз погоды и архив. Всё, что Вы хотите узнать о погоде Иваново!

Хотите узнать прогноз погоды Иваново? Тогда Вам сюда: Погода Иваново

Поиск расширенной информации на нашем сайте:

Другие новости

Новости СМИ2

Главная страница сайта

Новости сайта

03.07.2017

Напоминаем, что на нашем специализированном сайте Метеоцентр.Азия вы можете получить высокодетализированные автоматические прогнозы погоды по пунктам России, СНГ и мира в авиационном формате (включающие направление и скорость ветра, видимость, явления погоды, количество и форму облачности, нижнюю и верхнюю границу облачности).


Погода Иваново - сегодня

Время (UTC), дата Ветер
(°,м/с) 
Видим.   Явления Облачность Т
(°С)
Тd
(°С)
f(%) Тe
(°С)
Pmin
(гПа)
dP
(гПа)
Po
(мм)
O2
(г/м3)
Тmin Tmax R s Состояние
почвы
12 20.10.17 300 (СЗ) 10 км    10/4 600 м средняя 
[Sc|Ac trans]
+4.5 -3.2 57 +3  1019.8  0.2  753  299           
15 20.10.17 310 (СЗ) 10 км    9/3 1000 м средняя, верхняя 
[Sc|Ac trans|Ci fib]
+2.6 -1.9 72 +2  1020.2  0.2  753  301    +4.8       
18 20.10.17 тихо ()   10 км    8/3 1000 м средняя, верхняя 
[Sc|Ac trans|Ci fib]
-0.1 -2.1 86 -0  1020.4  0.1  753  304           
21 20.10.17 250 (З) 4000 м  дымка  10/6 750 м средняя 
[Sc|Ac und]
-0.2 -1.1 94 -1  1019.9  -0.5  753  304           
00 21.10.17 тихо ()   3400 м  слаб. ливневой снег  10/10 180 м кучево-дожд. 
[Cb calv]
-0.1 -0.6 96 -0  1019.2  -0.8  752  303           
03 21.10.17 290 (З) 4000 м  дымка{ливн. осадки, снег}  10/6 300 м средняя 
[Frnb|Ac trans]
+0 -0.4 97 +1  1018.8  -0.3  752  303  -1.4      равномерный
мокрый или
старый снег
100% 
06 21.10.17 340 (С) 10 км  {ливн. осадки, снег}  8/5 540 м кучево-дожд., средняя, верхняя 
[Cb calv|Ac trans|Ci fib]
+1.2 +0.7 96 +2  1019  0.2  752  302           
09 21.10.17 350 (С) 10 км    8/6 840 м кучево-дожд., средняя 
[Cb calv|Ac trans]
+2.4 -2.9 68 +1  1018.9  752  301           
12 21.10.17 250 (З) 10 км  в посл. час ливневой снег  8/5 600 м кучево-дожд., средняя 
[Cb calv|Ac trans]
+1.6 -0.9 83 +1  1018.2  -0.7  752  301           
15 21.10.17 300 (СЗ) 10 км  {ливн. осадки}  8/8 750 м кучево-дожд. 
[Cb calv]
-1 -2 93 1018.6  0.2  752  304    +3.9  0.3     
18 21.10.17 340 (С) 4000 м  дымка{ливн. осадки}  4/0 верхняя 
[Ci fib]
-3.2 -3.8 96 -3  1018.7  0.1  752  307           
21 21.10.17 330 (СЗ) 4000 м  дымка  10/0 средняя 
[Ac As]
-1.9 -2.8 94 -1  1018.5  0.1  752  305           
00 22.10.17 280 (З) 10 км    8/0 средняя 
[Ac trans]
-2.6 -3.1 96 -4  1018.3  -0.2  752  306           
03 22.10.17 270 (З) 10 км    6/0 средняя 
[Ac trans]
-2.1 -2.9 94 -3  1017.6  -0.6  751  305  -3.7         
06 22.10.17 260 (З) 10 км    9/8 270 м средняя 
[Sc|Ac trans]
-1.8 -3.2 90 -5  1016.9  -0.7  751  305           
09 22.10.17 250 (З) 10 км    9/5 1000 м средняя, верхняя 
[Sc|Ac trans|Ci fib]
+0.5 -3 77 -2  1016.3  -0.5  750  302           
12 22.10.17 260 (З) 10 км    10/3 1000 м средняя, верхняя 
[Sc|Ac trans|Ci fib]
+1.9 -4.5 62 1015.2  -1  750  300           
15 22.10.17 260 (З) 4000 м  слаб. ливневой снег  10/4 300 м кучево-дожд., средняя 
[Cb calv|Ac und]
-0.4 -1.7 91 -1  1015.5  0.2  750  303    +2.3  0.3     
18 22.10.17 260 (З) 4700 м  слаб. ливневой снег  10/6 720 м кучево-дожд., средняя 
[Cb calv|Ac und]
-0.1 -1.9 88 -1  1015.3  -0.2  750  302           
21 22.10.17 260 (З) 10 км  {ливн. осадки}  10/8 420 м кучево-дожд., средняя 
[Cb calv|Ac und]
-0.4 -1.7 91 -1  1015.3  750  303           
00 23.10.17 250 (З) 2200 м  слаб. ливневой снег  10/5 360 м кучево-дожд., средняя 
[Cb calv|Ac und]
-0.6 -1.6 93 -1  1015.4  0.1  750  303           
03 23.10.17 270 (З) 3600 м  слаб. ливневой снег  10/8 300 м кучево-дожд., средняя 
[Cb calv|Ac und]
-0.7 -1.3 96 1015.8  0.4  750  303  -0.8    0.7  равномерный
мокрый или
старый снег
100% 
06 23.10.17 040 (СВ) 1800 м  ливневой снег  10/10 150 м кучево-дожд. 
[Cb cap]
-0.4 -1 96 -1  1017.1  1.4  751  303           
09 23.10.17 030 (СВ) 10 км  {ливн. осадки}  8/8 1000 м 
[Sc]
+0.8 -3.2 75 +1  1019  1.9  752  303           
12 23.10.17 350 (С) 10 км  {ливн. осадки}  8/8 1000 м 
[Sc]
+1.1 -4.6 66 1020.9  1.9  754  303           
Время (UTC), дата Ветер
(°,м/с) 
Видим.   Явления Облачность Т
(°С)
Тd
(°С)
f(%) Тe
(°С)
Pmin
(гПа)
dP
(гПа)
Po
(мм)
O2
(г/м3)
Тmin Tmax R s Состояние
почвы

Для получения пояснительной информации подведите курсор к названию столбца.

ПОГОДА Иваново - архив

Всё, что Вы хотите узнать о погоде Иваново - удобно и подробно!

Выберите нужную дату (начиная с 1 января 2015* года) и нажмите кнопку "Найти".
Будут отображены архивные сводки погоды по пункту Иваново, начиная с указанной даты.


Отображать данные в формате CSV (для использования в таблицах Excel)


Внимание! Наш архив погоды предназначен исключительно для личного некоммерческого использования в познавательных целях. Если Вам необходимы официальные справки о состоянии погоды (для производственных, юридических, коммерческих и т.п. целей), обращайтесь в органы Росгидромета.

*Примечание: данная дата относится к архиву по метеостанциям СССР (Россия, СНГ, Балтия).
Архив по метеостанциям Зарубежной Европы и Азии (кроме Китая) хранится 10 дней, по другим регионам земного шара (Китай, Африка, Америка, Австралия, Океания) - 1 день.

Иваново - район местоположения метеостанции


Название, широта, долгота, высота метеостанции:
Иваново (Южный) 56.9°ш. 40.1°д. 126 м над ур. моря [Российская Федерация]

Дополнительная информация

В oтличие oт бoльшинства пoгoдных сайтoв мы публикуем пoдрoбную метеoинфoрмацию в детальнoм прoфессиoнальнoм фoрмате.

Характеристики температуры и влажнoсти вoздуха измеряются на высoте 2 м в тени вдали oт зданий и деревьев.
Скoрoсть ветра измеряется на высoте 10 м (на урoвне рoста челoвека скoрoсть ветра ниже в 1.5-2 раза). Если метеoстанция нахoдится в гoрoде или в лесу, тo скoрoсть ветра занижена на 2-4 м/с пo сравнению с oткрытым местoм. Скoрoсть ветра над акватoриями крупных рек и oзёр, а также на вершинах хoлмoв на 2-5 м/с выше, чем в oбычных услoвиях.
Атмoсфернoе давление в разных тoчках местнoсти мoжет значительнo oтличаться oт давления на метеoстанции, в зависимoсти oт услoвий рельефа (при пoдъёме на 10 м давление пoнижается примернo на 1 мм рт.ст.).